Regional Weather Roundup
Issued by NWS

Home | Current Version | Previous Version | Text Only | Print | Product List | Glossary On
Versions: 1 2 3 4 5 6 7 8 9 10 11 12 13 14 15 16 17 18 19 20 21 22 23 24 25 26 27 28 29 30 31 32 33 34 35 36 37 38 39 40 41 42 43 44 45 46 47 48 49 50
000
ASUS45 KPSR 031110
RWRAZ

ARIZONA HOURLY REGIONAL WEATHER ROUNDUP
NATIONAL WEATHER SERVICE PHOENIX AZ
400 AM MST FRI JUL 03 2015

NOTE: FAIR INDICATES FEW OR NO CLOUDS BELOW 12,000 FEET WITH NO
SIGNIFICANT WEATHER AND/OR OBSTRUCTIONS TO VISIBILITY.

AZZ001>003-036-031200-
NORTHWEST ARIZONA

CITY           SKY/WX    TMP DP  RH WIND       PRES   REMARKS
BULLHEAD CITY  CLEAR     90  54  29 E5        29.75S
KINGMAN        CLEAR     73  50  44 E3        29.97S
$$

AZZ004>008-015-016-018-031200-
NORTH CENTRAL ARIZONA

CITY           SKY/WX    TMP DP  RH WIND       PRES   REMARKS
GRAND CANYON     N/A    N/A N/A N/A MISG      30.23R
WILLIAMS       MOCLDY    57  50  77 S5        30.29F
PRESCOTT       MOCLDY    72  56  57 S6        30.11R
FLAGSTAFF      MOCLDY    61  50  67 SW10      30.24F
PAYSON         MOCLDY    72  52  49 NE5       30.13S
PAGE           CLOUDY    79  50  36 SE3       29.99S
$$

AZZ009>014-017-031200-
NORTHEAST ARIZONA

CITY           SKY/WX    TMP DP  RH WIND       PRES   REMARKS
WINSLOW        PTCLDY    70  54  56 N5        30.08R
SAINT JOHNS    PTCLDY    69  52  54 E9        30.15R
WINDOW ROCK    MOCLDY    63  53  70 NE5       30.22S
SHOW LOW       MOCLDY    64  54  68 S13       30.20S
$$

AZZ023-031200-
GREATER PHOENIX AREA

CITY           SKY/WX    TMP DP  RH WIND       PRES   REMARKS
PHOENIX        TSTM      88  65  46 W12       29.77F
BUCKEYE          N/A     82  66  57 SW8       29.82F
LUKE AFB       CLOUDY    88  63  42 S13       29.76F
DEER VALLEY    CLOUDY    88  59  37 VRB5G20   29.82F
SCOTTSDALE     CLOUDY    89  60  37 CALM      29.84F
MESA-GATEWAY   TSTM      79  70  73 E8        29.86R
$$

AZZ027-028-031200-
SOUTHWEST MARICOPA COUNTY AND PINAL COUNTY

CITY           SKY/WX    TMP DP  RH WIND       PRES   REMARKS
CASA GRANDE    CLOUDY    88  61  40 SW7       29.83R
GILA BEND      FAIR      88  58  35 SW5       29.81R
$$

AZZ503-504-507>509-031200-
SOUTHEAST ARIZONA

CITY           SKY/WX    TMP DP  RH WIND       PRES   REMARKS
TUCSON         CLOUDY    85  59  41 SW6       29.99R
DAVIS-MONTHAN  MOCLDY    84  59  42 SW5       29.98R
NOGALES        CLOUDY    74  60  61 N6        30.06R
SIERRA VISTA   CLOUDY    73  59  62 NW7       30.14R
DOUGLAS        CLOUDY    69  61  75 SW5       30.11R
SAFFORD        LGT RAIN  70  68  93 E6        30.07F
$$

AZZ020-021-025-026-031-031200-
SOUTHWEST ARIZONA

CITY           SKY/WX    TMP DP  RH WIND       PRES   REMARKS
YUMA           CLEAR     85  61  44 S5        29.77R
$$

CAZ031-033-041-043-047-048-061-031200-
SOUTHERN CALIFORNIA

CITY           SKY/WX    TMP DP  RH WIND       PRES   REMARKS
DOWNTOWN L.A.  CLOUDY    65  61  87 CALM      29.94S
L.A. AIRPORT   MOCLDY    63  61  93 W6        29.95S
SAN DIEGO      CLOUDY    69  61  75 NE3       29.95F
BURBANK        CLEAR     67  60  78 SE7       29.94S
ONTARIO        CLEAR     67  57  70 W5        29.95S
RIVERSIDE      CLEAR     69  60  73 CALM      29.96R
PALM SPRINGS   PTCLDY    87  57  35 CALM      29.78S
EL CENTRO NAS  PTCLDY    85  48  27 SW14      29.76F
IMPERIAL       PTCLDY    81  53  37 W8        29.74F
BLYTHE         CLEAR     88  62  41 S8        29.74S
NEEDLES        CLEAR     92  54  27 SE3       29.76S
$$

NVZ020-UTZ003-031200-
SOUTHERN NEVADA-UTAH

CITY           SKY/WX    TMP DP  RH WIND       PRES   REMARKS
LAS VEGAS      MOCLDY    91  51  25 S15       29.81S
SALT LAKE CITY PTCLDY    76  50  40 SE7       29.99R
$$

NMZ009-TXZ055-031200-
NEW MEXICO-WEST TEXAS

CITY           SKY/WX    TMP DP  RH WIND       PRES   REMARKS
ALBUQUERQUE    CLOUDY    69  58  67 NE5       30.16S
EL PASO        CLOUDY    79  58  48 N12       30.06R
$$


........................KEY........................
SKY/WX - SKY CONDITION/WEATHER
TMP    - TEMPERATURE IN FAHRENHEIT
DP     - DEW POINT IN FAHRENHEIT
RH     - RELATIVE HUMIDITY IN PERCENT
WIND   - DIRECTION AND SPEED IN MILES PER HOUR (MPH)
VRB    - VARIABLE WIND DIRECTION
PRES   - MEAN SEA LEVEL PRESSURE IN INCHES OF MERCURY
         F - FALLING PRESSURE   R - RISING PRESSURE
         S - STEADY PRESSURE
VSB    - VISIBILITY IN MILES
HX     - HEAT INDEX IN FAHRENHEIT
WCI    - WIND CHILL INDEX IN FAHRENHEIT
TC     - TEMPERATURE IN CELSIUS WHICH IS ALSO KNOWN AS
         TEMPERATURE IN CENTIGRADE
AFB    - AIR FORCE BASE
         LUKE AFB IS LUKE AIR FORCE BASE
         DAVIS-MONTHAN IS DAVIS-MONTHAN AIR FORCE BASE
NAS    - NAVAL AIR STATION
         EL CENTRO NAS IS EL CENTRO NAVAL AIR STATION
N/A    - NOT AVAILABLE




USA.gov is the U.S. government's official web portal to all federal, state and local government web resources and services.